sat.trackr.live / text

‹ back to catalog

STARLINK-11083 [DTC]

NORAD 59424 · 2024-065D

PAYLOAD ACTIVE UNKNOWN

§ Identity

Operator
Country
US
Launch date
2024-04-07
Launch site
AFWTR
Launch vehicle
Mass (kg)
RCS (m²)

Purposes: comms

External: N2YO · Heavens-Above · Gunter

§ Orbital elements

Epoch: 2026-05-24T23:25:21.286848Z

Period
91.74 min
Inclination
53.1576°
Eccentricity
0.0000774
Mean motion
15.69703914 rev/d
Perigee alt
359.2 km
Apogee alt
360.3 km
Semi-major
6,737.9 km
B*
9.0008e-6
RAAN
77.8940°
Arg perigee
53.1144°
Mean anomaly
306.9945°
Rev number
12,345

§ Raw data

STARLINK-11083 [DTC]1 59424U 24065D   26144.97594082  .00000502  00000+0  90008-5 0  99902 59424  53.1576  77.8940 0000774  53.1144 306.9945 15.69703914123450

JSON: /api/v1/satellites/59424 · /tle

For live sub-satellite position, see the globe view (requires WebGL).

§ Visibility from observer

Set your observer location to see the next 7 days of passes ≥ 10°. The values pass through the URL so the page stays shareable.

No JS? Fill the form by hand. The geolocation button needs JavaScript.